[[{"header":{"parameterUnit":"m.s-1","parameterCategory":1,"la1":30.2991,"la2":30.254,"lo1":-89.0895,"lo2":-89.0444,"dy":0.0017,"dx":0.0017,"nx":28,"ny":28,"refTime":"2024-10-20T03:00:00:Z","depth":0,"parameterNumber":2,"parameterNumberName":"U-component_of_WINDS"},"data":[0,0,0,0,0,0,0,0,0,0,0,0,0,0,0,0,0,0,0,0,0,0,0,0,0,0,0,0,0,0,0,0,0,0,0,0,0,0,0,0,0,0,0,0,0,0,0,0,0,0,0,0,0,0,0,0,0,0,-2.0994,-2.0994,0,-2.101,-2.101,-2.101,-2.0954,-2.0952,-2.095,-2.0949,-2.0964,-2.0965,-2.0967,0,0,0,0,0,0,0,0,0,0,0,0,0,-2.0916,-2.0918,-2.0994,-2.0994,-2.0995,-2.101,-2.101,-2.101,-2.0954,-2.0952,-2.095,-2.0948,-2.0963,-2.0965,-2.0968,0,0,0,0,0,0,0,0,0,0,0,0,0,-2.0942,-2.0918,-2.0994,-2.0968,-2.0966,-2.101,-2.101,-2.101,-2.0954,-2.0952,-2.0949,-2.0947,-2.0962,-2.0965,-2.0968,-2.1036,0,0,-2.0977,-2.0978,0,0,0,0,0,0,0,0,-2.0941,-2.0945,-2.0972,-2.097,-2.0968,-2.0977,-2.0988,-2.1019,-2.0955,-2.0959,-2.0949,-2.0946,-2.097,-2.0972,-2.0981,-2.1037,-2.1038,-2.0977,-2.0979,-2.098,-2.0981,0,0,0,0,0,0,0,-2.0939,-2.0944,-2.1,-2.0972,-2.097,-2.0956,-2.0957,-2.0993,-2.0978,-2.0958,-2.0954,-2.0957,-2.0968,-2.0978,-2.098,-2.1038,-2.0977,-2.098,-2.0981,-2.0983,-2.1152,-2.1155,0,0,0,0,0,0,-2.0941,-2.0943,-2.1,-2.1001,-2.0948,-2.0959,-2.0961,-2.0977,-2.0978,-2.0976,-2.0959,-2.0954,-2.0974,-2.0977,-2.0981,-2.1061,-2.098,-2.0983,-2.0985,-2.1149,-2.1153,-2.1156,0,0,0,0,0,0,-2.0939,-2.0946,-2.0999,-2.0971,-2.0977,-2.0963,-2.0982,-2.0978,-2.0988,-2.0978,-2.0975,-2.0971,-2.0972,-2.0977,-2.1023,-2.1061,-2.0984,-2.0987,-2.1146,-2.115,-2.1154,-2.1222,0,0,0,0,0,0,-2.0937,-2.0946,-2.0972,-2.0972,-2.0978,-2.1041,-2.0984,-2.098,-2.0993,-2.0987,-2.0989,-2.0987,-2.0971,-2.1019,-2.1026,-2.1063,-2.0989,-2.1143,-2.1148,-2.1153,-2.1216,-2.1228,-2.1238,0,0,0,0,0,-2.0935,-2.099,-2.0974,-2.0981,-2.101,-2.1044,-2.1047,-2.1027,-2.0996,-2.1022,-2.1016,-2.0987,-2.1056,-2.1024,-2.1032,-2.107,-2.114,-2.1146,-2.1152,-2.1211,-2.1225,-2.1237,0,0,0,0,0,0,-2.0994,-2.099,-2.0971,-2.1028,-2.1037,-2.1034,-2.1066,-2.1043,-2.106,-2.1053,-2.1028,-2.1029,-2.108,-2.108,-2.1045,-2.1137,-2.1093,-2.11,-2.1135,-2.1148,-2.1159,-2.1157,-2.0992,0,0,0,0,0,-2.1014,-2.1042,-2.1036,-2.1087,-2.1093,-2.1079,-2.1093,-2.1077,-2.1084,-2.1088,-2.1085,-2.1093,-2.1117,-2.1133,-2.1154,-2.1217,-2.1216,-2.1247,-2.1258,-2.1266,-2.1273,-2.1306,-2.132,-2.1176,-2.1176,-2.1176,0,0,-2.1055,-2.1056,-2.1075,-2.1099,-2.1104,-2.1133,-2.1082,-2.1115,-2.1136,-2.1092,-2.1136,-2.1135,-2.1143,-2.1198,-2.1222,-2.1199,-2.1313,-2.1274,-2.1281,-2.1283,-2.1314,-2.1328,-2.134,-2.118,-2.1179,-2.1178,0,0,-2.1145,-2.1149,-2.1191,-2.1198,-2.1206,-2.1196,-2.1207,-2.1208,-2.1206,-2.1249,-2.1217,-2.1242,-2.1283,-2.129,-2.1299,-2.1393,-2.1367,-2.1401,-2.1456,-2.1489,-2.15,-2.151,-2.1543,-2.1555,-2.1408,-2.1408,-2.1408,0,-2.1194,-2.1237,-2.1216,-2.1251,-2.1263,-2.1226,-2.1269,-2.1276,-2.1291,-2.1299,-2.1274,-2.1325,-2.1328,-2.1384,-2.1407,-2.1416,-2.1427,-2.14,-2.1501,-2.151,-2.1519,-2.155,-2.1563,-2.1412,-2.1412,-2.1411,-2.1411,0,-2.1297,-2.1328,-2.1361,-2.1377,-2.1393,-2.1432,-2.1417,-2.1435,-2.1419,-2.1412,-2.1457,-2.146,-2.1481,-2.1493,-2.1477,-2.1547,-2.1533,-2.1505,-2.1459,-2.1537,-2.1566,-2.1578,-2.1418,-2.1416,-2.1415,-2.1414,0,0,-2.1422,-2.1427,-2.144,-2.1447,-2.1454,-2.1477,-2.1515,-2.1536,-2.1552,-2.1564,-2.1595,-2.1631,-2.1605,-2.1616,-2.16,-2.1629,-2.1703,-2.1597,-2.1597,-2.1616,-2.178,-2.18,-2.1814,-2.1687,-2.1689,-2.1691,-2.1779,0,-2.1509,-2.1574,-2.1557,-2.1621,-2.1649,-2.1615,-2.1648,-2.1656,-2.1652,-2.1675,-2.167,-2.1695,-2.166,-2.1666,-2.1693,-2.1688,-2.1736,-2.1682,-2.1714,-2.1716,-2.1712,-2.183,-2.1851,-2.1934,-2.179,-2.1792,-2.1794,0,-2.1619,-2.1636,-2.1703,-2.1706,-2.1717,-2.1747,-2.1765,-2.1788,-2.1797,-2.1792,-2.1804,-2.1783,-2.1821,-2.1777,-2.1828,-2.1792,-2.1804,-2.1804,-2.1807,-2.1808,-2.1758,-2.1832,-2.196,-2.1972,-2.1811,-2.181,-2.1809,0,-2.1702,-2.1742,-2.1787,-2.1794,-2.18,-2.1821,-2.1825,-2.1831,-2.1845,-2.1862,-2.187,-2.1891,-2.1902,-2.1918,-2.1904,-2.1873,-2.1957,-2.1912,-2.1953,-2.1954,-2.1971,-2.1969,-2.2101,-2.1982,-2.1981,-2.1981,-2.1981,0,-2.1799,-2.1842,-2.1824,-2.1852,-2.1899,-2.188,-2.1926,-2.1925,-2.1932,-2.1959,-2.1932,-2.1958,-2.1938,-2.1962,-2.1951,-2.1995,-2.2,-2.1997,-2.1993,-2.1998,-2.1999,-2.2005,-2.1998,-2.1985,-2.1984,-2.1983,-2.1983,0,-2.1899,-2.1889,-2.1936,-2.1939,-2.194,-2.1974,-2.1976,-2.2002,-2.1996,-2.2031,-2.2038,-2.2029,-2.2056,-2.2044,-2.2073,-2.2065,-2.2121,-2.2111,-2.2118,-2.2115,-2.2157,-2.2152,-2.2295,-2.2313,-2.2184,-2.2185,-2.2186,0,-2.1961,-2.1993,-2.1999,-2.2015,-2.2021,-2.2048,-2.2062,-2.2045,-2.2062,-2.2075,-2.2099,-2.2125,-2.2144,-2.2189,-2.2185,-2.2207,-2.2196,-2.2245,-2.2199,-2.2203,-2.2195,-2.2193,-2.2196,-2.2253,-2.2254,-2.2256,-2.2257,0,-2.2072,-2.2066,-2.2088,-2.2109,-2.2128,-2.2144,-2.2157,-2.2172,-2.2156,-2.2176,-2.2204,-2.2219,-2.2249,-2.2274,-2.2294,-2.2297,-2.2274,-2.2272,-2.2282,-2.2287,-2.2289,-2.2288,-2.2142,-2.2268,-2.2267,-2.2266,-2.2265,-2.2265,-2.2153,-2.218,-2.2189,-2.2215,-2.2224,-2.2237,-2.2262,-2.226,-2.2283,-2.2306,-2.2295,-2.2328,-2.2337,-2.2361,-2.2368,-2.2393,-2.2374,-2.2389,-2.2393,-2.2397,-2.2402,-2.2287,-2.2397,-2.2396,-2.2396,-2.2396,-2.2396,0,-2.2262,-2.2266,-2.2291,-2.231,-2.2331,-2.231,-2.2324,-2.2342,-2.2372,-2.2382,-2.2402,-2.2435,-2.246,-2.2459,-2.2482,-2.2502,-2.2492,-2.2509,-2.2506,-2.2507,-2.2418,-2.2406,-2.2516,-2.2516,-2.2516,-2.2516,-2.2516,-2.2516,-2.232,-2.2364,-2.236,-2.2408,-2.2413,-2.2445,-2.2455,-2.2467,-2.2476,-2.2513,-2.2534,-2.2534,-2.254,-2.2563,-2.2585,-2.2585,-2.2594,-2.2614,-2.2609,-2.2525,-2.2513,-2.2502,-2.249,-2.2616,-2.2616,-2.2695,-2.2696,-2.2697]},{"header":{"parameterUnit":"m.s-1","parameterCategory":1,"la1":30.2991,"la2":30.254,"lo1":-89.0895,"lo2":-89.0444,"dy":0.0017,"dx":0.0017,"nx":28,"ny":28,"refTime":"2024-10-20T03:00:00:Z","depth":0,"parameterNumber":3,"parameterNumberName":"V-component_of_WINDS"},"data":[0,0,0,0,0,0,0,0,0,0,0,0,0,0,0,0,0,0,0,0,0,0,0,0,0,0,0,0,0,0,0,0,0,0,0,0,0,0,0,0,0,0,0,0,0,0,0,0,0,0,0,0,0,0,0,0,0,0,-3.1552,-3.1553,0,-3.1608,-3.1609,-3.1609,-3.1585,-3.1583,-3.1582,-3.1581,-3.1633,-3.1636,-3.1638,0,0,0,0,0,0,0,0,0,0,0,0,0,-3.1422,-3.1424,-3.1552,-3.1553,-3.1554,-3.1608,-3.1609,-3.1609,-3.1585,-3.1583,-3.1582,-3.158,-3.1632,-3.1635,-3.1638,0,0,0,0,0,0,0,0,0,0,0,0,0,-3.1478,-3.1425,-3.1552,-3.1548,-3.1548,-3.1608,-3.1609,-3.161,-3.1585,-3.1583,-3.1581,-3.1579,-3.1631,-3.1635,-3.1639,-3.1704,0,0,-3.1651,-3.1653,0,0,0,0,0,0,0,0,-3.1475,-3.1483,-3.1548,-3.1548,-3.1549,-3.1587,-3.1582,-3.1641,-3.1586,-3.1571,-3.1581,-3.1578,-3.1619,-3.1624,-3.1639,-3.1706,-3.1709,-3.1651,-3.1654,-3.1656,-3.1657,0,0,0,0,0,0,0,-3.1471,-3.148,-3.1574,-3.1549,-3.1549,-3.1542,-3.1548,-3.1593,-3.1606,-3.1572,-3.1571,-3.1578,-3.1619,-3.1635,-3.164,-3.1709,-3.1651,-3.1655,-3.1657,-3.1659,-3.1835,-3.1837,0,0,0,0,0,0,-3.1467,-3.1477,-3.1572,-3.1576,-3.1506,-3.1546,-3.1553,-3.1577,-3.1605,-3.1608,-3.1579,-3.1576,-3.1629,-3.1635,-3.1641,-3.172,-3.1655,-3.1659,-3.1661,-3.1832,-3.1835,-3.1838,0,0,0,0,0,0,-3.1465,-3.1476,-3.157,-3.1526,-3.1538,-3.1551,-3.1578,-3.1579,-3.1595,-3.1611,-3.1612,-3.1594,-3.1628,-3.1636,-3.1689,-3.1721,-3.1661,-3.1665,-3.183,-3.1833,-3.1836,-3.1877,0,0,0,0,0,0,-3.1461,-3.1475,-3.1501,-3.1527,-3.154,-3.1618,-3.158,-3.1582,-3.1603,-3.1599,-3.1624,-3.1627,-3.1627,-3.1683,-3.1693,-3.1726,-3.1668,-3.1827,-3.1831,-3.1835,-3.1873,-3.1882,-3.1889,0,0,0,0,0,-3.1457,-3.1509,-3.1502,-3.1514,-3.1572,-3.162,-3.1627,-3.1628,-3.1605,-3.1631,-3.1641,-3.1626,-3.1717,-3.1689,-3.17,-3.1734,-3.1825,-3.183,-3.1835,-3.187,-3.188,-3.1889,0,0,0,0,0,0,-3.1484,-3.1512,-3.1505,-3.1568,-3.1592,-3.1616,-3.1647,-3.1639,-3.1668,-3.1663,-3.1662,-3.1667,-3.1723,-3.1734,-3.1703,-3.1799,-3.1767,-3.1775,-3.179,-3.18,-3.1808,-3.1803,-3.1671,0,0,0,0,0,-3.1498,-3.1535,-3.1557,-3.161,-3.1623,-3.1634,-3.1654,-3.1653,-3.1677,-3.1686,-3.17,-3.1723,-3.1757,-3.1779,-3.1811,-3.1875,-3.188,-3.1904,-3.1912,-3.1919,-3.1925,-3.196,-3.1971,-3.1855,-3.1854,-3.1854,0,0,-3.1525,-3.1546,-3.1569,-3.1616,-3.1635,-3.1673,-3.1642,-3.1683,-3.1711,-3.1692,-3.1744,-3.1755,-3.1781,-3.184,-3.1867,-3.1851,-3.1959,-3.1926,-3.1931,-3.1933,-3.1967,-3.1978,-3.1988,-3.1858,-3.1857,-3.1857,0,0,-3.1595,-3.1615,-3.1662,-3.1682,-3.1711,-3.1718,-3.173,-3.1755,-3.1763,-3.1815,-3.1802,-3.1835,-3.1893,-3.1913,-3.193,-3.201,-3.1997,-3.2021,-3.2062,-3.2096,-3.2105,-3.2114,-3.2142,-3.2152,-3.2027,-3.2027,-3.2027,0,-3.1626,-3.1684,-3.1686,-3.1729,-3.1751,-3.1738,-3.1785,-3.1804,-3.1841,-3.1856,-3.1838,-3.1913,-3.1929,-3.1993,-3.2013,-3.2027,-3.204,-3.2017,-3.2104,-3.2112,-3.212,-3.2147,-3.2158,-3.203,-3.2029,-3.2029,-3.2029,0,-3.172,-3.176,-3.1794,-3.1833,-3.1859,-3.1903,-3.1912,-3.1937,-3.1934,-3.1943,-3.1997,-3.2017,-3.2053,-3.2068,-3.2065,-3.2132,-3.2121,-3.2104,-3.2072,-3.2134,-3.2159,-3.217,-3.2033,-3.2033,-3.2032,-3.2031,0,0,-3.1806,-3.1848,-3.186,-3.1879,-3.1912,-3.1942,-3.1987,-3.2024,-3.2046,-3.2073,-3.211,-3.2161,-3.2146,-3.2165,-3.2165,-3.2195,-3.2258,-3.2174,-3.2175,-3.2189,-3.2333,-3.2345,-3.2357,-3.225,-3.2252,-3.2254,-3.2331,0,-3.1878,-3.1957,-3.1962,-3.2033,-3.2071,-3.2061,-3.21,-3.2124,-3.2134,-3.2166,-3.2177,-3.2213,-3.2191,-3.2203,-3.2233,-3.2244,-3.2287,-3.2238,-3.2283,-3.2285,-3.2276,-3.2371,-3.2383,-3.2454,-3.2341,-3.2343,-3.2344,0,-3.1972,-3.2004,-3.208,-3.211,-3.2125,-3.216,-3.2196,-3.2228,-3.2255,-3.226,-3.2284,-3.2279,-3.2324,-3.2292,-3.2353,-3.2321,-3.234,-3.2348,-3.2351,-3.2354,-3.2317,-3.2375,-3.2477,-3.2488,-3.236,-3.2358,-3.2357,0,-3.2026,-3.2089,-3.2143,-3.2159,-3.2195,-3.2219,-3.2235,-3.2261,-3.2283,-3.2314,-3.2329,-3.2364,-3.2383,-3.241,-3.2415,-3.2391,-3.2477,-3.2445,-3.2482,-3.2482,-3.2499,-3.2498,-3.2605,-3.2513,-3.2513,-3.2513,-3.2513,0,-3.2106,-3.2152,-3.2168,-3.2201,-3.2254,-3.2259,-3.231,-3.2324,-3.2347,-3.2382,-3.2376,-3.2408,-3.2413,-3.2447,-3.2452,-3.2502,-3.2511,-3.2516,-3.2516,-3.2516,-3.2515,-3.2527,-3.2522,-3.2516,-3.2515,-3.2515,-3.2514,0,-3.2174,-3.2187,-3.2245,-3.2276,-3.2284,-3.2322,-3.2347,-3.2378,-3.2389,-3.2433,-3.2444,-3.2459,-3.2499,-3.2508,-3.2554,-3.2557,-3.2617,-3.2613,-3.2608,-3.2608,-3.2644,-3.264,-3.2761,-3.2778,-3.2677,-3.2678,-3.2678,0,-3.2223,-3.226,-3.2295,-3.2319,-3.2336,-3.2375,-3.2399,-3.2406,-3.2431,-3.2466,-3.2493,-3.2533,-3.2565,-3.2629,-3.2644,-3.268,-3.2676,-3.2716,-3.2681,-3.268,-3.2676,-3.2673,-3.2677,-3.2722,-3.2723,-3.2724,-3.2725,0,-3.2309,-3.2314,-3.235,-3.2389,-3.2419,-3.2449,-3.2478,-3.2497,-3.2509,-3.2537,-3.2579,-3.2604,-3.2653,-3.2692,-3.2729,-3.2744,-3.2736,-3.2736,-3.2746,-3.2746,-3.2741,-3.2744,-3.2626,-3.2733,-3.2732,-3.2731,-3.2731,-3.273,-3.2369,-3.2401,-3.2431,-3.2472,-3.2495,-3.2523,-3.2555,-3.257,-3.2606,-3.2647,-3.265,-3.2695,-3.2723,-3.2771,-3.2789,-3.2824,-3.2812,-3.2827,-3.283,-3.2834,-3.2837,-3.2737,-3.2831,-3.2831,-3.2831,-3.283,-3.283,0,-3.2453,-3.2473,-3.2511,-3.2553,-3.2585,-3.2578,-3.261,-3.2637,-3.2678,-3.2705,-3.2738,-3.2786,-3.2825,-3.2844,-3.2883,-3.2907,-3.2905,-3.2917,-3.2914,-3.2918,-3.2846,-3.2833,-3.2918,-3.2918,-3.2918,-3.2918,-3.2918,-3.2918,-3.2501,-3.2555,-3.2565,-3.2631,-3.265,-3.2696,-3.2715,-3.2741,-3.2763,-3.2818,-3.2851,-3.2865,-3.2889,-3.2929,-3.2965,-3.2969,-3.2983,-3.2997,-3.3,-3.2932,-3.2923,-3.2914,-3.2902,-3.3,-3.3001,-3.3069,-3.307,-3.307]}]]